Location: Henham
(51.9333°N, 0.2500°E)
Time: 17:15:56
(UTC+00:00)

STARLINK-76 - Pass Details

Date: 23 October 2019
Orbit: 548 x 551 km, 53.0° (Epoch: 20 November)

Event Time Altitude Azimuth Distance (km) Brightness Sun altitude
Rises 17:56:53 0° 276° (W) 2,719 9.1 -11.1°
Reaches altitude 10° 17:59:07 10° 278° (W) 1,825 7.7 -11.4°
Maximum altitude 18:03:16 77° 4° (N) 569 3.6 -12.1°
Enters shadow 18:06:07 20° 90° (E) 1,318 4.9 -12.5°
